Regional Weather Roundup
Issued by NWS Upton, NY

Current Version | Previous Version | Text Only | Print | Product List | Glossary On
Versions: 1 2 3 4 5 6 7 8 9 10 11 12 13 14 15 16 17 18 19 20 21 22 23 24 25 26 27 28 29 30 31 32 33 34 35 36 37 38 39 40 41 42 43 44 45 46 47 48 49 50
000
ASUS41 KOKX 260204
RWROKX

REGIONAL WEATHER ROUNDUP
NATIONAL WEATHER SERVICE NEW YORK NY
1000 PM EDT WED MAY 25 2016

NOTE: "FAIR" INDICATES FEW OR NO CLOUDS BELOW 12,000 FEET WITH NO
SIGNIFICANT WEATHER AND/OR OBSTRUCTIONS TO VISIBILITY.

NYZ071-072-176-178-NJZ106-104-260300-
NEW YORK CITY METRO AREA


CITY           SKY/WX    TMP DP  RH WIND       PRES   REMARKS
CENTRAL PARK   CLEAR     80  44  27 W3        30.08R
LAGUARDIA APRT PTCLDY    82  51  34 SW10      30.04R
KENNEDY INTL   PTCLDY    76  48  37 SW12      30.06R
NEWARK/LIBERTY PTCLDY    79  46  31 SW10      30.05R
BRNX BOT. GARD   N/A     81  45  28 SW6       30.05R
TETERBORO      CLEAR     77  45  32 S5        30.04R
$$

NYZ177-179-078>081-260300-
LONG ISLAND NEW YORK

CITY           SKY/WX    TMP DP  RH WIND       PRES   REMARKS
FARMINGDALE    CLEAR     68  54  60 SW6       30.06R
ISLIP          PTCLDY    65  54  67 SW5       30.05R
SHIRLEY        CLEAR     67  53  61 SW5       30.06R
RIVERHEAD        N/A     66  52  59 CALM      30.04S
WESTHAMPTON    NOT AVBL
EAST HAMPTON   FAIR      69  47  45 SW7       30.04R
MONTAUK POINT    N/A     73  47  39 SW8       30.05R
$$

NYZ052-065-067-260300-
HUDSON VALLEY

CITY           SKY/WX    TMP DP  RH WIND       PRES   REMARKS
WHITE PLAINS   CLEAR     71  49  45 W3        30.06R
NEWBURGH       PTCLDY    70  57  64 CALM      30.06R
MONTGOMERY     MOCLDY    65  58  78 CALM      30.05R
POUGHKEEPSIE   MOCLDY    70  58  65 CALM      30.03R
ALBANY         CLEAR     74  53  48 NW8       30.03R
$$

NJZ001-105-106-008-010-013-015-019>022-104-260300-
NEW JERSEY

CITY           SKY/WX    TMP DP  RH WIND       PRES   REMARKS
NEWARK/LIBERTY PTCLDY    79  46  31 SW10      30.05R
TETERBORO      CLEAR     77  45  32 S5        30.04R
CALDWELL       CLEAR     75  48  38 CALM      30.06R
MORRISTOWN     PTCLDY    75  48  38 W7        30.06R
SOMERVILLE     CLEAR     63  55  75 CALM      30.05R
SUSSEX         CLEAR     67  54  63 CALM      30.07R
ANDOVER          N/A     65  56  72 CALM      30.08R
TRENTON        PTCLDY    75  48  38 SW3       30.08R
MILLVILLE      CLEAR     63  56  78 CALM      30.12R
ATLANTIC CITY  CLEAR     70  54  56 SW6       30.11R
WRIGHTSTOWN    CLEAR     69  53  57 SW9       30.07R
TOMS RIVER     CLEAR     64  48  55 SW6       30.10R
BELMAR         CLEAR     74  49  41 SW7       30.10R
$$

PAZ047>061-062-071-260300-
EASTERN PENNSYLVANIA

CITY           SKY/WX    TMP DP  RH WIND       PRES   REMARKS
PHILADELPHIA   CLEAR     76  52  43 SW9       30.10R
ALLENTOWN      CLEAR     71  50  47 SW5       30.08R
SCRANTON       CLEAR     73  50  44 S3        30.09R
$$

CTZ002-004>006-009-010-012-RIZ004-006-007-MAZ004-011-015-260300-
SOUTHERN NEW ENGLAND
 IN CT

CITY           SKY/WX    TMP DP  RH WIND       PRES   REMARKS
BRADLEY INTL   PTCLDY    72  52  49 CALM      30.02R
HARTFORD       MOCLDY    74  53  48 S6        30.02R
DANBURY        PTCLDY    65  55  70 SW3       30.07R
WTRBRY/OXFORD    N/A     66  52  59 CALM      30.08R
BRIDGEPORT     CLEAR     70  54  56 SW3       30.04R
MERIDEN        PTCLDY    66  57  72 CALM      30.04R
NEW HAVEN      CLEAR     73  50  44 SW6       30.04R
CHESTER        FAIR      72  50  46 SW7       30.05S
GROTON         CLEAR     71  51  49 W7        30.03R
WILLIMANTIC    CLOUDY    74  54  49 CALM      30.03R

 IN RI

CITY           SKY/WX    TMP DP  RH WIND       PRES   REMARKS
PROVIDENCE     PTCLDY    76  48  37 W9        30.02R
BLOCK ISLAND   CLEAR     65  50  58 SW16      30.05R
WESTERLY       CLEAR     71  50  47 VRB3      30.04R

 IN MA

CITY           SKY/WX    TMP DP  RH WIND       PRES   REMARKS
BOSTON         PTCLDY    79  51  37 W10       29.97R
WORCESTER      CLEAR     70  50  49 W9        30.04R
WESTFIELD      CLEAR     68  56  65 CALM      30.02R
PROVINCETOWN   CLOUDY    63  55  75 SW10      29.98R
NANTUCKET      PTCLDY    61  51  70 W15       30.02R
$$

ANZ330-335-338-340-345-350-353-355-260300-
COASTAL MARINE OBSERVATIONS


STATION/POSITION TIME  SKY/WX   TEMP    WIND        PRES    VSBY  WAVE
                                AIR SEA DIR/SP/G                  HT/PER
                 (UTC)          (F)     (DEG/KT/KT) (MB)    (MI)  (FT/S)
NY HARB ENTRANCE 0050            65 61  220/ 10/ 10 1017.1          2/ 8
20S FIRE ISLAND  0050            61 57  210/ 12/ 14 1017.4          3/ 6
GREAT SOUTH BAY  0100            66 66  280/ 10/ 14   N/A
23 SSW MONTAUK P 0150            60 54  230/ 12/ 14 1017.0          3/ 7
15 E BARNEGAT LI NOT AVBL
HUDSON CANYON    0050            59 55              1018.5          3/ 6
KINGS POINT      0100               61              1016.8
EXECUTION ROCKS  NOT AVBL
CENTRAL LI SOUND 0100            66     210/ 12/ 14   N/A           1
EASTERN LI SOUND 0100            64 53  270/ 10/ 17   N/A
ROBBINS REEF     0100                               1016.6
$$


>>>>>>>>>>>>>>>>>>>>>>>>>>>> KEY <<<<<<<<<<<<<<<<<<<<<<<<<<<
>                                                          <
>     SKY/WX - SKY CONDITION/PRESENT WEATHER               <
>     TMP    - TEMPERATURE IN FAHRENHEIT                   <
>     DP     - DEWPOINT IN FAHRENHEIT                      <
>     RH     - RELATIVE HUMIDITY IN PERCENT                <
>     WIND   - DIRECTION AND SPEED IN MPH                  <
>     PRES   - MEAN SEA LEVEL PRESSURE IN INCHES OF HG     <
>     WCI    - WIND CHILL INDEX                            <
>     VSB    - VISIBILITY IN MILES                         <
>     HX     - HEAT INDEX                                  <
>     TC     - TEMPERATURE IN CELSIUS                      <
>     VRB    - VARIABLE WIND DIRECTION                     <
>                                                          <
>>>>>>>>>>>>>>>>>>>>>>>>>>>> KEY <<<<<<<<<<<<<<<<<<<<<<<<<<<





USA.gov is the U.S. government's official web portal to all federal, state and local government web resources and services.